RYR20KW LHBP-LIPH

Flight info

Callsign RYR20KW
Flight time 1h 5m
Altitude 36000
Route GILEP DCT ZOLKU DCT SUNIS DCT RADLY DCT UPETA DCT RIFEN/N0457F370 DCT ROSKA DCT TULIK M859 CHI N503 INBUT
Aircraft B738/M-SDE2E3FGHIRWXY/LB1

Departure

Time 2026-05-08 11:04
Airport Budapest Liszt Ferenc International Airport (LHBP)

Arrival

Time 2026-05-08 12:09
Airport Treviso Airport (LIPH)
Time Latitude Longitude Altitude Speed Heading
2026-05-08 10:32 47.43509 19.26476 456 ft 0 kts 222°
2026-05-08 10:55 47.43515 19.26484 457 ft 4 kts 223°
2026-05-08 10:55 47.43535 19.26511 457 ft 4 kts 225°
2026-05-08 10:55 47.43545 19.26530 454 ft 2 kts 264°
2026-05-08 10:55 47.43543 19.26546 457 ft 2 kts 308°
2026-05-08 10:56 47.43536 19.26558 457 ft 0 kts 313°
2026-05-08 11:01 47.43559 19.26521 457 ft 17 kts 313°
2026-05-08 11:01 47.43669 19.26328 455 ft 27 kts 296°
2026-05-08 11:01 47.43676 19.26070 456 ft 18 kts 283°
2026-05-08 11:02 47.43729 19.25917 456 ft 17 kts 251°
2026-05-08 11:02 47.43547 19.25659 456 ft 25 kts 222°
2026-05-08 11:02 47.43410 19.25475 456 ft 26 kts 222°
2026-05-08 11:03 47.43279 19.25300 456 ft 25 kts 222°
2026-05-08 11:03 47.43159 19.25139 456 ft 23 kts 222°
2026-05-08 11:03 47.43096 19.25045 456 ft 17 kts 239°
2026-05-08 11:03 47.43112 19.24923 456 ft 0 kts 314°
2026-05-08 11:04 47.43204 19.24772 455 ft 60 kts 313°
2026-05-08 11:04 47.43485 19.24324 449 ft 117 kts 312°
2026-05-08 11:04 47.44194 19.23193 651 ft 169 kts 309°
2026-05-08 11:04 47.44990 19.21880 1737 ft 167 kts 308°
2026-05-08 11:05 47.45785 19.20589 2846 ft 178 kts 308°
2026-05-08 11:05 47.46676 19.19104 3266 ft 207 kts 307°
2026-05-08 11:05 47.47702 19.17406 3620 ft 232 kts 309°
2026-05-08 11:05 47.48608 19.15412 4332 ft 239 kts 288°
2026-05-08 11:06 47.48895 19.13064 5188 ft 233 kts 266°
2026-05-08 11:06 47.48525 19.10685 5718 ft 249 kts 243°
2026-05-08 11:06 47.47454 19.08673 6436 ft 256 kts 218°
2026-05-08 11:06 47.45904 19.07335 7331 ft 260 kts 206°
2026-05-08 11:07 47.44252 19.06189 8240 ft 262 kts 207°
2026-05-08 11:07 47.42848 19.04513 9140 ft 265 kts 235°
2026-05-08 11:07 47.42164 19.01987 10048 ft 270 kts 257°
2026-05-08 11:07 47.42125 18.99134 10597 ft 290 kts 273°
2026-05-08 11:08 47.42432 18.96037 10789 ft 317 kts 276°
2026-05-08 11:08 47.42841 18.92745 10970 ft 342 kts 277°
2026-05-08 11:08 47.43300 18.89183 11329 ft 358 kts 278°
2026-05-08 11:08 47.43770 18.85519 12001 ft 364 kts 278°
2026-05-08 11:09 47.44233 18.81831 12778 ft 367 kts 277°
2026-05-08 11:09 47.44685 18.78146 13528 ft 371 kts 277°
2026-05-08 11:09 47.45139 18.74366 14205 ft 375 kts 277°
2026-05-08 11:09 47.45590 18.70551 14860 ft 379 kts 277°
2026-05-08 11:10 47.46041 18.66705 15511 ft 382 kts 277°
2026-05-08 11:10 47.46495 18.62812 16160 ft 386 kts 277°
2026-05-08 11:10 47.46950 18.58883 16822 ft 389 kts 277°
2026-05-08 11:10 47.47407 18.54924 17458 ft 392 kts 277°
2026-05-08 11:11 47.47866 18.50928 18082 ft 396 kts 277°
2026-05-08 11:11 47.48330 18.46885 18678 ft 399 kts 277°
2026-05-08 11:11 47.48788 18.42880 19224 ft 402 kts 276°
2026-05-08 11:11 47.49254 18.38795 19781 ft 404 kts 276°
2026-05-08 11:12 47.49722 18.34675 20335 ft 407 kts 276°
2026-05-08 11:12 47.50191 18.30525 20865 ft 410 kts 276°
2026-05-08 11:12 47.50663 18.26346 21379 ft 413 kts 276°
2026-05-08 11:12 47.51138 18.22119 21888 ft 416 kts 276°
2026-05-08 11:13 47.51614 18.17871 22384 ft 419 kts 276°
2026-05-08 11:13 47.52086 18.13649 22869 ft 422 kts 276°
2026-05-08 11:13 47.52565 18.09344 23346 ft 425 kts 275°
2026-05-08 11:13 47.53045 18.05017 23789 ft 427 kts 275°
2026-05-08 11:14 47.53526 18.00664 24219 ft 429 kts 275°
2026-05-08 11:14 47.54006 17.96314 24671 ft 429 kts 275°
2026-05-08 11:14 47.54487 17.91937 25099 ft 430 kts 275°
2026-05-08 11:14 47.54961 17.87551 25501 ft 431 kts 274°
2026-05-08 11:15 47.55108 17.83141 25868 ft 427 kts 263°
2026-05-08 11:15 47.54776 17.78788 26284 ft 425 kts 256°
2026-05-08 11:15 47.54046 17.74567 26665 ft 423 kts 248°
2026-05-08 11:15 47.52968 17.70573 27036 ft 423 kts 245°
2026-05-08 11:16 47.51829 17.66549 27373 ft 425 kts 245°
2026-05-08 11:16 47.50676 17.62515 27712 ft 426 kts 245°
2026-05-08 11:16 47.49521 17.58464 28058 ft 428 kts 245°
2026-05-08 11:16 47.48370 17.54402 28423 ft 428 kts 245°
2026-05-08 11:17 47.47229 17.50351 28921 ft 425 kts 245°
2026-05-08 11:17 47.46100 17.46330 29503 ft 421 kts 245°
2026-05-08 11:17 47.44983 17.42348 30072 ft 418 kts 245°
2026-05-08 11:17 47.43874 17.38394 30490 ft 416 kts 245°
2026-05-08 11:18 47.42767 17.34457 30878 ft 414 kts 245°
2026-05-08 11:18 47.41665 17.30543 31292 ft 412 kts 245°
2026-05-08 11:18 47.40565 17.26642 31715 ft 409 kts 245°
2026-05-08 11:18 47.39475 17.22784 32126 ft 407 kts 245°
2026-05-08 11:19 47.38383 17.18924 32527 ft 405 kts 245°
2026-05-08 11:19 47.37299 17.15101 32912 ft 403 kts 245°
2026-05-08 11:19 47.36217 17.11289 33309 ft 401 kts 245°
2026-05-08 11:19 47.35157 17.07561 33705 ft 399 kts 245°
2026-05-08 11:20 47.34082 17.03786 34091 ft 397 kts 245°
2026-05-08 11:20 47.33010 17.00030 34346 ft 397 kts 245°
2026-05-08 11:20 47.31932 16.96257 34507 ft 399 kts 244°
2026-05-08 11:20 47.30861 16.92518 34676 ft 401 kts 245°
2026-05-08 11:21 47.29772 16.88719 34904 ft 401 kts 245°
2026-05-08 11:21 47.28684 16.84926 35108 ft 402 kts 245°
2026-05-08 11:21 47.27589 16.81118 35269 ft 404 kts 245°
2026-05-08 11:21 47.26490 16.77300 35436 ft 406 kts 245°
2026-05-08 11:22 47.25383 16.73461 35632 ft 406 kts 245°
2026-05-08 11:22 47.24290 16.69677 35840 ft 407 kts 245°
2026-05-08 11:22 47.23182 16.65845 36026 ft 408 kts 245°
2026-05-08 11:23 47.20948 16.58140 36091 ft 409 kts 245°
2026-05-08 11:23 47.18721 16.50479 36088 ft 408 kts 245°
2026-05-08 11:24 47.16480 16.42791 36078 ft 407 kts 245°
2026-05-08 11:24 47.14218 16.35168 36084 ft 406 kts 242°
2026-05-08 11:25 47.11324 16.28121 36082 ft 405 kts 237°
2026-05-08 11:25 47.08311 16.21143 36096 ft 405 kts 237°
2026-05-08 11:26 47.05305 16.14156 36101 ft 405 kts 237°
2026-05-08 11:26 47.02299 16.07153 36084 ft 406 kts 237°
2026-05-08 11:27 46.99309 16.00196 36095 ft 406 kts 237°
2026-05-08 11:27 46.96288 15.93183 36094 ft 406 kts 237°
2026-05-08 11:28 46.93258 15.86169 36074 ft 407 kts 237°
2026-05-08 11:28 46.90244 15.79207 36090 ft 408 kts 237°
2026-05-08 11:29 46.87195 15.72186 36068 ft 408 kts 236°
2026-05-08 11:29 46.84144 15.65175 36088 ft 408 kts 236°
2026-05-08 11:30 46.81108 15.58215 36081 ft 409 kts 236°
2026-05-08 11:30 46.78048 15.51221 36081 ft 409 kts 236°
2026-05-08 11:31 46.74987 15.44239 36067 ft 409 kts 236°
2026-05-08 11:31 46.71914 15.37248 36080 ft 408 kts 236°
2026-05-08 11:32 46.68859 15.30314 36070 ft 408 kts 236°
2026-05-08 11:32 46.65786 15.23357 36077 ft 408 kts 236°
2026-05-08 11:33 46.62515 15.16584 36086 ft 407 kts 232°
2026-05-08 11:33 46.59075 15.10073 36073 ft 408 kts 232°
2026-05-08 11:34 46.55609 15.03537 36070 ft 407 kts 232°
2026-05-08 11:34 46.52160 14.97006 36071 ft 407 kts 232°
2026-05-08 11:35 46.48735 14.90517 36077 ft 407 kts 232°
2026-05-08 11:35 46.45285 14.83991 36046 ft 407 kts 232°
2026-05-08 11:36 46.41841 14.77491 36092 ft 405 kts 232°
2026-05-08 11:36 46.38408 14.71027 36080 ft 407 kts 232°
2026-05-08 11:37 46.34939 14.64509 36076 ft 408 kts 232°
2026-05-08 11:37 46.31452 14.57974 36050 ft 410 kts 232°
2026-05-08 11:38 46.27984 14.51489 36083 ft 410 kts 232°
2026-05-08 11:38 46.24477 14.44947 36078 ft 411 kts 232°
2026-05-08 11:39 46.20961 14.38404 36074 ft 412 kts 232°
2026-05-08 11:39 46.17467 14.31916 36076 ft 412 kts 232°
2026-05-08 11:40 46.13940 14.25381 36073 ft 411 kts 232°
2026-05-08 11:40 46.10438 14.18906 36074 ft 411 kts 232°
2026-05-08 11:41 46.06918 14.12414 36035 ft 409 kts 232°
2026-05-08 11:41 46.03761 14.05606 36085 ft 409 kts 240°
2026-05-08 11:41 46.02350 14.02025 35608 ft 411 kts 240°
2026-05-08 11:42 46.00961 13.98495 36227 ft 411 kts 240°
2026-05-08 11:42 45.99529 13.94874 36104 ft 416 kts 239°
2026-05-08 11:42 45.98086 13.91251 36060 ft 416 kts 239°
2026-05-08 11:43 45.95215 13.84081 36060 ft 415 kts 239°
2026-05-08 11:43 45.92325 13.76895 36065 ft 415 kts 239°
2026-05-08 11:44 45.89436 13.69726 36058 ft 414 kts 239°
2026-05-08 11:44 45.86546 13.62575 36052 ft 413 kts 239°
2026-05-08 11:44 45.84988 13.59163 35819 ft 416 kts 233°
2026-05-08 11:45 45.83068 13.56043 35332 ft 416 kts 225°
2026-05-08 11:45 45.80974 13.53180 34651 ft 416 kts 224°
2026-05-08 11:45 45.78866 13.50340 33992 ft 416 kts 224°
2026-05-08 11:45 45.76753 13.47496 33199 ft 416 kts 224°
2026-05-08 11:46 45.74645 13.44649 32474 ft 416 kts 224°
2026-05-08 11:46 45.72541 13.41796 31722 ft 417 kts 224°
2026-05-08 11:46 45.70432 13.38928 30986 ft 418 kts 224°
2026-05-08 11:46 45.68363 13.36110 30493 ft 413 kts 224°
2026-05-08 11:47 45.66286 13.33282 29935 ft 410 kts 224°
2026-05-08 11:47 45.64225 13.30478 29337 ft 406 kts 224°
2026-05-08 11:47 45.62190 13.27711 28806 ft 401 kts 224°
2026-05-08 11:47 45.60172 13.24970 28274 ft 398 kts 224°
2026-05-08 11:48 45.58172 13.22257 27726 ft 394 kts 224°
2026-05-08 11:48 45.56215 13.19605 27214 ft 391 kts 224°
2026-05-08 11:48 45.54245 13.16937 26708 ft 388 kts 224°
2026-05-08 11:48 45.52294 13.14299 26191 ft 386 kts 224°
2026-05-08 11:49 45.50342 13.11661 25686 ft 385 kts 224°
2026-05-08 11:49 45.48400 13.09041 25180 ft 384 kts 224°
2026-05-08 11:49 45.46446 13.06405 24670 ft 391 kts 224°
2026-05-08 11:49 45.44437 13.03698 24131 ft 402 kts 224°
2026-05-08 11:50 45.42396 13.00952 23566 ft 402 kts 223°
2026-05-08 11:50 45.40368 12.98226 22952 ft 400 kts 223°
2026-05-08 11:50 45.38351 12.95517 22395 ft 396 kts 223°
2026-05-08 11:50 45.36382 12.92873 21862 ft 392 kts 223°
2026-05-08 11:51 45.34403 12.90221 21341 ft 389 kts 223°
2026-05-08 11:51 45.32449 12.87579 20826 ft 386 kts 226°
2026-05-08 11:51 45.30726 12.84673 20223 ft 384 kts 235°
2026-05-08 11:51 45.29344 12.81405 19633 ft 385 kts 240°
2026-05-08 11:52 45.28471 12.79208 19307 ft 383 kts 240°
2026-05-08 11:52 45.27174 12.75964 19158 ft 371 kts 239°
2026-05-08 11:52 45.25890 12.72845 19077 ft 359 kts 239°
2026-05-08 11:52 45.24640 12.69846 18974 ft 346 kts 239°
2026-05-08 11:53 45.23424 12.66941 18653 ft 339 kts 239°
2026-05-08 11:53 45.22240 12.64115 17948 ft 340 kts 239°
2026-05-08 11:53 45.21009 12.61174 16741 ft 354 kts 239°
2026-05-08 11:53 45.19730 12.58123 15956 ft 357 kts 239°
2026-05-08 11:54 45.18480 12.55138 15475 ft 349 kts 238°
2026-05-08 11:54 45.17253 12.52210 15016 ft 342 kts 238°
2026-05-08 11:54 45.16042 12.49323 14576 ft 339 kts 238°
2026-05-08 11:54 45.14839 12.46460 14146 ft 336 kts 238°
2026-05-08 11:55 45.13650 12.43632 13709 ft 342 kts 238°
2026-05-08 11:55 45.12407 12.40677 13194 ft 353 kts 238°
2026-05-08 11:55 45.11149 12.37692 12695 ft 350 kts 238°
2026-05-08 11:55 45.09919 12.34763 12216 ft 341 kts 240°
2026-05-08 11:56 45.09164 12.31621 11828 ft 334 kts 263°
2026-05-08 11:56 45.09278 12.28417 11362 ft 332 kts 284°
2026-05-08 11:56 45.10214 12.25425 10966 ft 333 kts 304°
2026-05-08 11:56 45.11759 12.23030 10736 ft 326 kts 321°
2026-05-08 11:57 45.13542 12.21101 10617 ft 320 kts 324°
2026-05-08 11:57 45.15341 12.19261 10491 ft 315 kts 324°
2026-05-08 11:57 45.17081 12.17481 10341 ft 301 kts 324°
2026-05-08 11:57 45.18721 12.15784 10230 ft 290 kts 324°
2026-05-08 11:58 45.20322 12.14107 10101 ft 282 kts 323°
2026-05-08 11:58 45.21895 12.12459 9805 ft 281 kts 323°
2026-05-08 11:58 45.23454 12.10812 9509 ft 278 kts 323°
2026-05-08 11:59 45.26501 12.07586 8958 ft 268 kts 323°
2026-05-08 11:59 45.27991 12.06002 8676 ft 266 kts 323°
2026-05-08 11:59 45.29442 12.04454 8431 ft 262 kts 323°
2026-05-08 11:59 45.30895 12.02911 8162 ft 258 kts 323°
2026-05-08 12:00 45.32323 12.01387 7890 ft 255 kts 323°
2026-05-08 12:00 45.33737 11.99880 7634 ft 251 kts 323°
2026-05-08 12:00 45.35136 11.98388 7389 ft 253 kts 323°
2026-05-08 12:00 45.36538 11.96893 7136 ft 257 kts 323°
2026-05-08 12:01 45.37980 11.95354 6887 ft 263 kts 323°
2026-05-08 12:01 45.39452 11.93780 6611 ft 263 kts 323°
2026-05-08 12:01 45.40909 11.92222 6275 ft 259 kts 323°
2026-05-08 12:01 45.42326 11.90702 6103 ft 250 kts 323°
2026-05-08 12:02 45.43695 11.89230 5897 ft 242 kts 323°
2026-05-08 12:02 45.45019 11.87806 5685 ft 242 kts 323°
2026-05-08 12:02 45.46388 11.86333 5445 ft 251 kts 323°
2026-05-08 12:02 45.47807 11.84805 5160 ft 259 kts 323°
2026-05-08 12:03 45.49249 11.83252 4700 ft 262 kts 323°
2026-05-08 12:03 45.50795 11.81824 3981 ft 269 kts 339°
2026-05-08 12:03 45.52659 11.81490 3316 ft 273 kts
2026-05-08 12:03 45.54382 11.82505 2660 ft 276 kts 39°
2026-05-08 12:04 45.55536 11.84640 2194 ft 270 kts 64°
2026-05-08 12:04 45.56304 11.87012 2026 ft 256 kts 69°
2026-05-08 12:04 45.56920 11.89297 1960 ft 236 kts 70°
2026-05-08 12:04 45.57463 11.91402 1918 ft 215 kts 71°
2026-05-08 12:05 45.57958 11.93295 1896 ft 192 kts 70°
2026-05-08 12:05 45.58400 11.94975 1911 ft 176 kts 71°
2026-05-08 12:05 45.58827 11.96606 1908 ft 175 kts 71°
2026-05-08 12:05 45.59254 11.98243 1913 ft 175 kts 71°
2026-05-08 12:06 45.59681 11.99859 1925 ft 174 kts 70°
2026-05-08 12:06 45.60106 12.01469 1928 ft 173 kts 70°
2026-05-08 12:06 45.60524 12.03049 1909 ft 166 kts 70°
2026-05-08 12:06 45.60923 12.04568 1919 ft 163 kts 70°
2026-05-08 12:07 45.61317 12.06059 1872 ft 161 kts 71°
2026-05-08 12:07 45.61710 12.07545 1659 ft 155 kts 71°
2026-05-08 12:07 45.62083 12.08956 1452 ft 150 kts 71°
2026-05-08 12:07 45.62454 12.10363 1255 ft 152 kts 70°
2026-05-08 12:08 45.62827 12.11774 1016 ft 150 kts 71°
2026-05-08 12:08 45.63189 12.13149 792 ft 147 kts 71°
2026-05-08 12:08 45.63554 12.14521 632 ft 147 kts 70°
2026-05-08 12:08 45.63909 12.15859 430 ft 144 kts 71°
2026-05-08 12:09 45.64267 12.17203 230 ft 146 kts 71°
2026-05-08 12:09 45.64625 12.18551 75 ft 139 kts 71°
2026-05-08 12:09 45.64917 12.19667 56 ft 91 kts 69°
2026-05-08 12:09 45.65049 12.20123 61 ft 32 kts 54°
2026-05-08 12:10 45.65186 12.20259 59 ft 15 kts 26°
2026-05-08 12:10 45.65201 12.20269 61 ft 0 kts 26°
2026-05-08 12:10 45.65243 12.20298 60 ft 12 kts 26°
2026-05-08 12:10 45.65307 12.20409 57 ft 18 kts 72°
2026-05-08 12:11 45.65361 12.20441 61 ft 3 kts 339°
2026-05-08 12:11 45.65378 12.20432 55 ft 0 kts 340°